Location: Gila Cliff Dwellings National Monument
(33.2240°N, 108.2417°W)
Time: 06:55:58
(UTC-06:00)

Cosmos 2322 Rocket - Visible Passes

Search period start: 30 March 2015 00:00
Search period end: 09 April 2015 00:00
Orbit: 834 x 849 km, 71.0° (Epoch: 29 March)

Date Brightness Start Highest point End Pass type
(mag) Time Alt. Az. Time Alt. Az. Time Alt. Az.
30 Mar 5.2 20:18:10 10° WNW 20:21:00 14° W 20:23:28 10° SW visible
31 Mar 5.2 20:02:58 10° WNW 20:06:04 14° W 20:08:50 10° SW visible
05 Apr 4.9 06:21:34 10° SSE 06:25:40 22° ESE 06:29:58 10° NE visible
06 Apr 4.8 06:06:47 10° SSE 06:10:44 21° ESE 06:14:53 10° NE visible
07 Apr 4.8 05:52:00 10° SE 05:55:47 19° ESE 05:59:48 10° NE visible
08 Apr 4.8 05:37:15 10° SE 05:40:51 18° ESE 05:44:41 10° ENE visible
